Location: Kitchener-Waterloo
(43.4500°N, 80.5000°W)
Time: 05:01:55
(UTC-04:00)

ISS - All Passes

Search period start: 30 April 2016 00:00
Search period end: 10 May 2016 00:00
Orbit: 402 x 405 km, 51.6° (Epoch: 29 April)

Date Brightness Start Highest point End Pass type
(mag) Time Alt. Az. Time Alt. Az. Time Alt. Az.
30 Apr - 08:20:20 10° S 08:22:32 17° SE 08:24:45 10° E daylight
30 Apr - 09:55:27 10° WSW 09:58:41 65° NNW 10:01:57 10° NE daylight
30 Apr - 11:33:00 10° WNW 11:35:37 21° N 11:38:13 10° NE daylight
30 Apr - 13:10:16 10° NW 13:12:52 21° N 13:15:28 10° ENE daylight
30 Apr - 14:46:33 10° NW 14:49:48 61° NNE 14:53:02 10° ESE daylight
30 Apr - 16:23:39 10° W 16:25:59 18° SW 16:28:17 10° S daylight
01 May - 09:02:59 10° SW 09:06:13 71° SE 09:09:29 10° ENE daylight
01 May - 10:40:07 10° WNW 10:42:56 26° NNW 10:45:46 10° NE daylight
01 May - 12:17:42 10° NW 12:20:09 19° N 12:22:37 10° NE daylight
01 May - 13:54:09 10° NW 13:57:15 38° NNE 14:00:20 10° E daylight
01 May - 15:30:41 10° WNW 15:33:41 33° SW 15:36:38 10° SSE daylight
02 May - 08:10:47 10° SSW 08:13:50 37° SE 08:16:53 10° ENE daylight
02 May - 09:47:15 10° W 09:50:18 35° NNW 09:53:22 10° NE daylight
02 May - 11:24:59 10° NW 11:27:25 19° N 11:29:52 10° NE daylight
02 May - 13:01:45 10° NW 13:04:38 28° NNE 13:07:30 10° E daylight
02 May - 14:38:03 10° WNW 14:41:17 62° SW 14:44:31 10° SE daylight
03 May - 07:18:59 10° S 07:21:29 21° SE 07:24:01 10° E daylight
03 May - 08:54:31 10° WSW 08:57:44 54° NNW 09:00:57 10° NE daylight
03 May - 10:32:08 10° WNW 10:34:42 21° N 10:37:16 10° NE daylight
03 May - 12:09:17 10° NW 12:11:57 22° NNE 12:14:36 10° ENE daylight
03 May - 13:45:33 10° NW 13:48:49 73° NNE 13:52:05 10° ESE daylight
03 May - 15:22:59 10° W 15:24:55 15° SW 15:26:50 10° S daylight
04 May - 06:28:10 10° SSE 06:29:14 11° SE 06:30:18 10° ESE daylight
04 May - 08:01:56 10° SW 08:05:12 87° SSE 08:08:29 10° ENE daylight
04 May - 09:39:14 10° WNW 09:41:59 24° NNW 09:44:45 10° NE daylight
04 May - 11:16:44 10° NW 11:19:14 20° N 11:21:43 10° NE daylight
04 May - 12:53:06 10° NW 12:56:16 44° NNE 12:59:25 10° E daylight
04 May - 14:29:47 10° WNW 14:32:37 27° SW 14:35:25 10° SSE daylight
05 May - 07:09:37 10° SW 07:12:45 46° SE 07:15:55 10° ENE daylight
05 May - 08:46:19 10° W 08:49:18 32° NNW 08:52:18 10° NE daylight
05 May - 10:24:02 10° NW 10:26:28 19° N 10:28:54 10° NE daylight
05 May - 12:00:41 10° NW 12:03:38 30° NNE 12:06:35 10° E daylight
05 May - 13:37:03 10° WNW 13:40:13 50° SW 13:43:24 10° SE daylight
06 May - 06:17:38 10° SSW 06:20:22 25° SE 06:23:07 10° E daylight
06 May - 07:53:30 10° WSW 07:56:41 46° NNW 07:59:51 10° NE daylight
06 May - 09:31:12 10° WNW 09:33:42 20° N 09:36:13 10° NE daylight
06 May - 11:08:13 10° NW 11:10:56 24° NNE 11:13:41 10° ENE daylight
06 May - 12:44:28 10° WNW 12:47:45 88° NNE 12:51:00 10° ESE daylight
06 May - 14:22:23 10° WSW 14:23:45 12° SW 14:25:07 10° SSW daylight
07 May - 05:26:18 10° SSE 05:28:02 14° SE 05:29:48 10° E visible
07 May - 07:00:50 10° WSW 07:04:07 78° NNW 07:07:23 10° NE daylight
07 May - 08:38:16 10° WNW 08:40:57 23° NNW 08:43:39 10° NE daylight
07 May - 10:15:39 10° NW 10:18:12 20° N 10:20:43 10° ENE daylight
07 May - 11:51:59 10° NW 11:55:11 51° NNE 11:58:23 10° ESE daylight
07 May - 13:28:50 10° W 13:31:27 22° SW 13:34:03 10° S daylight
08 May - 06:08:23 10° SW 06:11:35 57° SE 06:14:49 10° ENE daylight
08 May - 07:45:19 10° W 07:48:13 29° NNW 07:51:09 10° NE daylight
08 May - 09:22:59 10° NW 09:25:25 19° N 09:27:51 10° NE daylight
08 May - 10:59:31 10° NW 11:02:33 34° NNE 11:05:34 10° E daylight
08 May - 12:35:57 10° WNW 12:39:03 40° SW 12:42:09 10° SSE daylight
09 May - 05:16:15 10° SSW 05:19:09 30° SE 05:22:05 10° ENE visible
09 May - 06:52:26 10° W 06:55:33 40° NNW 06:58:40 10° NE daylight
09 May - 08:30:09 10° NW 08:32:37 19° N 08:35:05 10° NE daylight
09 May - 10:07:02 10° NW 10:09:50 25° NNE 10:12:38 10° ENE daylight
09 May - 11:43:18 10° WNW 11:46:35 77° SW 11:49:50 10° SE daylight
